Flag for U.S.A. Weather past 2 weeks in Decatur, Illinois, U.S.A.

Now
20 °F

Clear.


Feels Like: 20 °F
Forecast: 21 / 40 °F
Wind: No wind

Location: Decatur Airport

Current Time: Mar 28, 2015 at 7:34:05 AM

Latest Report: Mar 28, 2015 at 6:54 AM


Visibility: 10 mi

Pressure: 30.30 "Hg

Humidity: 85%

Dew point: 16 °F

Location of DecaturLocation

Historic Weather in Decatur — Graph

°F

Decatur temperature yesterday

Maximum temperature yesterday: 38 °F (at 11:54 AM)
Minimum temperature yesterday: 25 °F (at 11:54 PM)
Average temperature yesterday: 33 °F

Past Weeks' High & Low Weather Summary

 TemperatureHumidityPressure
High75 °F (Mar 16, 4:54 PM)100% (Mar 13, 8:54 PM)30.38 "Hg (Mar 13, 8:54 PM)
Low20 °F (Mar 28, 3:54 AM)30% (Mar 17, 4:54 PM)29.84 "Hg (Mar 25, 12:02 AM)
Average43 °F70%30.13 "Hg
* Reported Mar 13 5:54 AM — Mar 28 5:54 AM, Decatur, Weather by CustomWeather, © 2015

Note: Actual official high and low records may vary slightly from our data, if they occured in-between our weather recording intervals... More about our weather records

Advertising

Decatur weather history for previous 24 hours

 ConditionsComfort  
Time TempWeatherWind HumidityBarometerVisibility
5:54 AM
Sat, Mar 28
21 °FClear.No wind81%30.27 "Hg10 mi
4:54 AM20 °FClear.No wind82%30.25 "Hg10 mi
3:54 AM20 °FClear.7 mph82%30.24 "Hg10 mi
2:54 AM21 °FClear.8 mph81%30.24 "Hg10 mi
1:54 AM22 °FClear.6 mph82%30.25 "Hg10 mi
12:54 AM23 °FClear.9 mph78%30.24 "Hg10 mi
11:54 PM
Fri, Mar 27
25 °FClear.8 mph75%30.23 "Hg10 mi
10:54 PM26 °FClear.6 mph66%30.22 "Hg10 mi
9:54 PM27 °FClear.7 mph61%30.21 "Hg10 mi
8:54 PM28 °FClear.7 mph58%30.20 "Hg10 mi
7:54 PM28 °FSunny.7 mph58%30.19 "Hg10 mi
6:54 PM33 °FSunny.12 mph41%30.18 "Hg10 mi
5:54 PM36 °FPassing clouds.10 mph38%30.16 "Hg10 mi
4:54 PM38 °FSunny.16 mph34%30.16 "Hg10 mi
3:54 PM37 °FPartly sunny.17 mph41%30.15 "Hg10 mi
2:54 PM37 °FPassing clouds.10 mph39%30.15 "Hg10 mi
1:54 PM38 °FScattered clouds.18 mph39%30.16 "Hg10 mi
12:54 PM37 °FPartly sunny.16 mph39%30.17 "Hg10 mi
11:54 AM38 °FScattered clouds.17 mph36%30.17 "Hg10 mi
10:54 AM36 °FSunny.18 mph38%30.17 "Hg10 mi
9:54 AM33 °FOvercast.20 mph41%30.16 "Hg10 mi
8:54 AM34 °FScattered clouds.13 mph59%30.15 "Hg10 mi
7:54 AM31 °FOvercast.12 mph69%30.14 "Hg10 mi
Weather by CustomWeather, © 2015

See weather overviewHow to use our weather pages